Location: Bambrugge
(50.9212°N, 3.9299°E)
Time: 06:15:18
(UTC+00:00)

SL-16 R/B - Pass Details

Date: 10 August 2024
Orbit: 842 x 845 km, 71.0° (Epoch: 16 September)

Event Time Altitude Azimuth Distance (km) Brightness Sun altitude
Exits shadow 00:57:10 35° 245° (WSW) 1,340 2.9 -22.0°
Maximum altitude 00:59:22 56° 306° (NW) 998 2.6 -21.9°
Drops below altitude 10° 01:04:58 10° 24° (NNE) 2,476 5.8 -21.6°
Sets 01:07:29 0° 29° (NNE) 3,415 6.8 -21.5°
